FLOCK 4A-3 (44081 NORAD) Tracking and Keplerian Element Data

This shows tracking and keplerian element data for the satellite.

Feedback or suggestion? Click here.




ElementValue
Catalog44081
NameFLOCK 4A-3
Epoch Orbit15774
Epoch Day31.43298793
Epoch Year2022
RAAN93.5598
Inclination97.3332
Eccentricity0.0010352
Argument of Perigee231.6352
Mean Anonmoly128.3957
Mean Motion15.27356578
Decay Rate0.00014298
L11 44081U 19018D 22031.43298793 .00014298 00000+0 53522-3 0 9992
L22 44081 97.3332 93.5598 0010352 231.6352 128.3957 15.27356578157746



Live tracking and technical data element details for FLOCK 4A-3 (NORAD 44081). FLOCK 4A-3 can be tracked NOW for your location showing map with azimuth and elevation plus other details from your city location.







IsCatalogInMostPopularTable: catalog: 44081, numindb: 331
Update: records affected: 1



GetName: 44081 FLOCK 4A-3

Hit Count: updated at: Fri, 16 May 2025 10:59:15 GMT